SL-16 DEB

Satellite information

Favourite Embed

Satellite Type and Status

DEBRISIN ORBIT

Key statistics

Satellite SL-16 DEB at a glance.

Uptime

8610

Days in orbit

Revolutions

≈ 13.8

Per day

Orbit

SSO

Sun Synchronous Orbit

Inclination

99.5

Latest

Satellite identification and parameters

Extended collection of information and parameters for SL-16 DEB.

Object identification

Identified? True

Debris? True

Object name: SL-16 DEB

International designator: 2001-056G

Object number (NORAD): 27007

Object ID (CCSDS): 27007

Country: COMMONWEALTH OF INDEPENDENT STATES (CIS)

Current information (Y/N): Y

RCS size: SMALL

Orbital parameters

Period: 104.431 minutes

Inclination: 99.4657 deg

SMA: 7345.932 km

Apoapsis: 978.729 km

Periapsis: 956.864 km

RAAN: 336.9515 deg

Eccentricy: 0.0014882

Argument of periapsis: 137.7524 deg

Mean anomaly: 222.4777 deg

Mean motion: 13.78898929 rev/day

Mean motion (dot): 0.00000536 rev/day2

B* drag term: 0.00056986 1/REarth

Two-line elements (TLE)

Creation date: July 6, 2025, 6:05 p.m.

Reference frame: TEME

Reference center: EARTH

Epoch: July 6, 2025, 9:22 a.m. UTC

TLE line 0: 0 SL-16 DEB

TLE line 1: 1 27007U 01056G 25187.39070750 .00000536 00000-0 56986-3 0 9993

TLE line 2: 2 27007 99.4657 336.9515 0014882 137.7524 222.4777 13.78898929180950

Live tracking on map

Real-time ground track for satellite SL-16 DEB.

In-orbit conjunctions

A list of the most updated potential collisions computed for object SL-16 DEB.

Target Orbit TCA Probability of collision Miss distance Type
COSMOS 1150 LEO 2024-11-05 13:23:06 0.0001881827 522.0 (m) PAYLOAD
SL-8 R/B LEO 2024-10-10 02:19:46 0.0005689698 127.0 (m) ROCKET BODY

Associated space launch

Meteor-3M No.1 is the first and so far only of the Meteor-3M series polar-orbit weather satellites.

SL-16 DEB was lifted into orbit during the mission ‘Zenit-2 | Meteor-3M No. 1’, on board a Zenit-2 space rocket.

The launch took place on Dec. 10, 2001, 5:18 p.m. from 45/1.

For more information about the launch, click the button.

Launch to space Zenit-2 | Meteor-3M No. 1
Zenit-2 | Meteor-3M No. 1

Agency: N/A

Status: Launch Successful

Launch date: Dec. 10, 2001, 5:18 p.m. UTC

Rocket: Zenit-2

Launch pad: 45/1

Location: Baikonur Cosmodrome, Republic of Kazakhstan

...

Latest news about this satellite

There are no fresh news available about this satellite. Check back as we update our databases every day.


Newsletter sign-up

Weekly statistics, charts and insights to help you stay on top of the space industry.